Tracking 28895 objects as of 27-May-2024
HD Live streaming from Space Station
objects crossing your sky now

TRISAT

Track TRISAT now!
10-day predictions
TRISAT is classified as:


NORAD ID: 46280
Int'l Code: 2020-061J
Perigee: 424.1 km
Apogee: 428.8 km
Inclination: 97.3 °
Period: 93.0 minutes
Semi major axis: 6797 km
RCS: Unknown
Launch date: September 3, 2020
Source: Republic of Slovenia (SVN)
Launch site: FRENCH GUIANA (FRGUI)

Uplink (MHz): 145.900
Downlink (MHz): 436.500
Beacon (MHz): 435.6125
Mode: 9600bps GMSK CCSDS
Call sign:
Status: Unknown

Your satellite tracking list
Your tracking list is empty




NASA's NSSDC Master Catalog

Two Line Element Set (TLE):
1 46280U 20061J   24148.18859470  .00054511  00000-0  99939-3 0  9998
2 46280  97.3349 218.3716 0003402 230.9796 129.1152 15.49116581206572
Source of the keplerian elements: AFSPC